Location: Cardiff
(53.7833°N, 113.6000°W)
Time: 21:14:05
(UTC+00:00)

Oscar 19 - Pass Details

Date: 09 December 2023
Orbit: 771 x 789 km, 98.9° (Epoch: 04 March)

Event Time Altitude Azimuth Distance (km) Brightness Sun altitude
Rises 01:06:28 0° 226° (SW) 3,239 15.0 -15.4°
Reaches altitude 10° 01:10:52 10° 263° (W) 2,322 14.4 -16.0°
Maximum altitude 01:12:10 11° 278° (W) 2,262 14.1 -16.2°
Drops below altitude 10° 01:13:30 10° 293° (WNW) 2,328 13.8 -16.4°
Sets 01:17:57 0° 329° (NNW) 3,267 14.1 -17.0°
